User: anonymous   Login
Location: Strohbehn Observatory
(42.4649°N, 93.8239°W)
Time: 02:23:46
(UTC-05:00)
Language:

SL-16 R/B - Orbit

View from above orbital plane
View from above orbital plane
View from above satellite
View from above satellite

Ground track
Ground track

The orbit data is extracted from the following two-line orbital elements,

1 31793U 07029B   17296.95054299 -.00000302 +00000-0 -13269-3 0  9990
2 31793 070.9729 118.6933 0002776 275.2177 190.5745 14.14386188532884
Epoch (UTC): 23 October 2017 22:48:46
Eccentricity: 0.0002776
inclination: 70.9729°
perigee height: 842 km
apogee height: 846 km
right ascension of ascending node: 118.6933°
argument of perigee: 275.2177°
revolutions per day: 14.14386188
mean anomaly at epoch: 190.5745°
orbit number at epoch: 53288

The dashed part of the orbit path shows where the satellite is in the earth's shadow,  

DLR